Weather History for KHYR - February, 2013

Change the Weather History Date:

Sunday, February 3, 2013

  Actual Average Record
Temperature  
Mean Temperature 6 °F -  
Max Temperature 12 °F 22 °F 51 °F (2005)
Min Temperature 0 °F 4 °F -32 °F (1949)
Degree Days  
Heating Degree Days 59    
Moisture  
Dew Point -3 °F    
Average Humidity 69    
Maximum Humidity 85    
Minimum Humidity 46    
Precipitation  
Precipitation 0.00 in - - ()
Sea Level Pressure  
Sea Level Pressure 30.01 in    
Wind  
Wind Speed 3 mph (West)    
Max Wind Speed 10 mph    
Max Gust Speed 20 mph    
Visibility 10 miles    
Events Snow    
Averages and records for this station are not official NWS values.
T = Trace of Precipitation, MM = Missing Value Source: NWS Daily Summary

Daily Weather History Graph

Daily Weather History Graph

Search for Another Location

Airport or City:

Trip Planner

Search our weather history database for the weather conditions in past years. The results will help you decide how hot, cold, wet, or windy it might be!

Date:

Astronomy

Feb. 03, 2013 Rise Set
Actual Time 7:25 AM CST 5:14 PM CST
Civil Twilight 6:53 AM CST 5:46 PM CST
Nautical Twilight 6:17 AM CST 6:22 PM CST
Astronomical Twilight 5:43 AM CST 6:56 PM CST
Moon 12:54 AM CST (2/3) 10:49 AM CST (2/3)
Length of Visible Light 10h 52m
Length of Day
9h 49m
Waning Gibbous, 48% of the Moon is Illuminated
Feb 3
Waning Gibbous
Feb 10
New
Feb 17
First Quarter
Feb 25
Full
Mar 4
Last Quarter

Hourly Weather History & Observations

Time (CST) Temp. Windchill Dew Point Humidity Pressure Visibility Wind Dir Wind Speed Gust Speed Precip Events Conditions
12:53 AM 3.9 °F - -0.9 °F 80% 29.99 in 8.0 mi Calm Calm - 0.00 in   Overcast
1:53 AM 3.9 °F - -0.9 °F 80% 29.99 in 10.0 mi Calm Calm - 0.00 in   Overcast
2:53 AM 5.0 °F -4.1 °F -0.9 °F 76% 29.98 in 9.0 mi West 4.6 mph - N/A   Overcast
3:53 AM 5.0 °F -4.1 °F -0.0 °F 80% 29.97 in 6.0 mi West 4.6 mph - 0.00 in Snow Light Snow
4:53 AM 6.1 °F -2.8 °F -0.0 °F 76% 29.99 in 8.0 mi West 4.6 mph - 0.00 in   Overcast
5:53 AM 5.0 °F -2.1 °F -0.9 °F 76% 30.00 in 10.0 mi Variable 3.5 mph - N/A   Mostly Cloudy
6:28 AM 3.2 °F -4.2 °F -0.4 °F 85% 29.91 in 10.0 mi Variable 3.5 mph - N/A   Mostly Cloudy
6:40 AM 3.2 °F -7.8 °F -0.4 °F 85% 29.92 in 10.0 mi Variable 5.8 mph - N/A   Scattered Clouds
6:53 AM 3.9 °F -5.3 °F -2.0 °F 76% 30.02 in 10.0 mi Variable 4.6 mph - N/A   Partly Cloudy
7:53 AM 3.0 °F - -2.0 °F 80% 30.02 in 10.0 mi Calm Calm - N/A   Clear
8:37 AM 5.0 °F -4.1 °F -2.2 °F 72% 29.95 in 10.0 mi Variable 4.6 mph - N/A   Mostly Cloudy
8:53 AM 5.0 °F -8.1 °F -2.0 °F 73% 30.05 in 8.0 mi WNW 8.1 mph - N/A   Overcast
9:53 AM 6.1 °F -8.7 °F -4.0 °F 63% 30.05 in 10.0 mi WNW 10.4 mph 19.6 mph N/A   Mostly Cloudy
10:48 AM 6.8 °F -0.1 °F -4.0 °F 61% 29.97 in 10.0 mi Variable 3.5 mph - N/A   Scattered Clouds
10:53 AM 7.0 °F -3.3 °F -4.0 °F 61% 30.06 in 10.0 mi Variable 5.8 mph - N/A   Scattered Clouds
11:53 AM 10.0 °F -0.9 °F -5.1 °F 51% 30.05 in 10.0 mi Variable 6.9 mph - N/A   Clear
12:53 PM 10.0 °F 1.8 °F -5.1 °F 51% 30.04 in 10.0 mi Variable 4.6 mph - N/A   Clear
1:53 PM 10.9 °F 1.4 °F -5.1 °F 49% 30.03 in 10.0 mi West 5.8 mph - N/A   Clear
2:53 PM 12.0 °F 2.7 °F -5.1 °F 46% 30.02 in 10.0 mi West 5.8 mph - N/A   Clear
3:53 PM 12.0 °F 2.7 °F -5.1 °F 46% 30.02 in 10.0 mi Variable 5.8 mph - N/A   Clear
4:53 PM 10.9 °F - -6.0 °F 47% 30.01 in 10.0 mi Calm Calm - N/A   Clear
5:53 PM 1.9 °F - -6.0 °F 69% 30.03 in 10.0 mi Calm Calm - N/A   Mostly Cloudy
6:53 PM 3.0 °F - -5.1 °F 69% 30.04 in 10.0 mi Calm Calm - N/A   Overcast
7:53 PM 3.9 °F - -2.9 °F 73% 30.05 in 10.0 mi Calm Calm - N/A   Overcast
8:53 PM 3.9 °F - -4.0 °F 70% 30.04 in 10.0 mi Calm Calm - N/A   Overcast
9:53 PM 1.9 °F - -4.0 °F 76% 30.05 in 10.0 mi Calm Calm - N/A   Overcast
10:53 PM -0.9 °F - -7.1 °F 75% 30.05 in 10.0 mi Calm Calm - N/A   Scattered Clouds
11:53 PM -0.0 °F - -6.0 °F 76% 30.06 in 10.0 mi Calm Calm - N/A   Mostly Cloudy